Erwin, NC

3:51 PM EDT on May 25, 2017 (GMT -0400)
Harnett County

Weather History for KHRJ - August, 2014

Change the Weather History Date:

Wednesday, August 20, 2014

  Actual Average Record
Temperature  
Mean Temperature 80 °F -  
Max Temperature 89 °F 87 °F 103 °F (1983)
Min Temperature 72 °F 68 °F 60 °F (1976)
Cooling Degree Days 16    
Growing Degree Days 30 (Base 50)    
Moisture  
Dew Point 72 °F    
Average Humidity 81    
Maximum Humidity 99    
Minimum Humidity 51    
Precipitation  
Precipitation 0.02 in - - ()
Sea Level Pressure  
Sea Level Pressure 29.96 in    
Wind  
Wind Speed 1 mph (ESE)    
Max Wind Speed 5 mph    
Max Gust Speed -    
Visibility 9 miles    
Events Rain    
Averages and records for this station are not official NWS values.
T = Trace of Precipitation, MM = Missing Value Source: NWS Daily Summary

Daily Weather History Graph

Daily Weather History Graph

Search for Another Location

Airport or City:

Trip Planner

Search our weather history database for the weather conditions in past years. The results will help you decide how hot, cold, wet, or windy it might be!

Date:

Astronomy

Aug. 20, 2014 Rise Set
Actual Time 6:38 AM EDT 7:57 PM EDT
Civil Twilight 6:11 AM EDT 8:24 PM EDT
Nautical Twilight 5:39 AM EDT 8:56 PM EDT
Astronomical Twilight 5:06 AM EDT 9:29 PM EDT
Moon 2:20 AM EDT (8/20) 4:37 PM EDT (8/20)
Length of Visible Light 14h 12m
Length of Day
13h 19m
Waning Crescent, 21% of the Moon is Illuminated
Aug 20
Waning Crescent
Aug 25
New
Sep 2
First Quarter
Sep 8
Full
Sep 15
Last Quarter

Hourly Weather History & Observations

Time (EDT) Temp. Heat Index Dew Point Humidity Pressure Visibility Wind Dir Wind Speed Gust Speed Precip Events Conditions
12:15 AM 74.3 °F - 72.7 °F 95% 29.89 in 10.0 mi Calm Calm - N/A   Clear
12:35 AM 74.3 °F - 72.9 °F 95% 29.89 in 10.0 mi Calm Calm - N/A   Clear
12:55 AM 73.6 °F - 72.9 °F 98% 29.89 in 10.0 mi Calm Calm - N/A   Clear
1:35 AM 73.4 °F - 72.5 °F 97% 29.88 in 10.0 mi Calm Calm - N/A   Clear
1:55 AM 72.5 °F - 71.8 °F 98% 29.88 in 10.0 mi Calm Calm - N/A   Clear
2:15 AM 72.7 °F - 72.1 °F 98% 29.88 in 10.0 mi Calm Calm - N/A   Clear
2:35 AM 72.3 °F - 71.6 °F 98% 29.89 in 10.0 mi Calm Calm - N/A   Clear
2:55 AM 72.5 °F - 71.8 °F 98% 29.89 in 10.0 mi Calm Calm - N/A   Clear
3:15 AM 72.7 °F - 72.1 °F 98% 29.90 in 10.0 mi Calm Calm - N/A   Clear
3:35 AM 73.0 °F - 72.5 °F 98% 29.90 in 10.0 mi Calm Calm - N/A   Clear
3:55 AM 72.9 °F - 72.5 °F 99% 29.89 in 10.0 mi NNE 3.5 mph - N/A   Clear
4:15 AM 72.9 °F - 72.5 °F 99% 29.89 in 10.0 mi Calm Calm - N/A   Scattered Clouds
4:35 AM 72.9 °F - 72.5 °F 99% 29.90 in 7.0 mi Calm Calm - N/A   Scattered Clouds
4:55 AM 72.1 °F - 71.6 °F 98% 29.90 in 7.0 mi Calm Calm - N/A   Clear
5:15 AM 72.7 °F - 72.3 °F 99% 29.91 in 7.0 mi Calm Calm - N/A   Scattered Clouds
5:35 AM 73.2 °F - 72.7 °F 98% 29.92 in 7.0 mi Calm Calm - N/A   Overcast
5:55 AM 73.4 °F - 72.7 °F 98% 29.92 in 7.0 mi Calm Calm - N/A   Overcast
6:15 AM 72.7 °F - 72.0 °F 98% 29.93 in 10.0 mi Calm Calm - N/A   Overcast
6:35 AM 72.7 °F - 72.3 °F 99% 29.94 in 10.0 mi Calm Calm - N/A   Overcast
6:55 AM 72.9 °F - 72.7 °F 99% 29.94 in 5.0 mi Calm Calm - N/A   Overcast
7:15 AM 73.4 °F - 73.0 °F 99% 29.95 in 7.0 mi Calm Calm - N/A   Overcast
7:35 AM 74.1 °F - 73.4 °F 98% 29.95 in 7.0 mi Calm Calm - N/A   Overcast
7:55 AM 74.3 °F - 73.4 °F 97% 29.96 in 5.0 mi East 3.5 mph - N/A   Overcast
8:15 AM 75.2 °F - 73.4 °F 94% 29.96 in 7.0 mi ENE 3.5 mph - N/A   Overcast
8:35 AM 75.2 °F - 73.4 °F 94% 29.97 in 5.0 mi ENE 3.5 mph - N/A   Overcast
8:55 AM 76.1 °F - 73.4 °F 91% 29.97 in 7.0 mi Calm Calm - N/A   Overcast
9:15 AM 77.2 °F - 73.8 °F 89% 29.98 in 7.0 mi NE 4.6 mph - N/A   Overcast
9:35 AM 78.4 °F - 72.0 °F 80% 29.98 in 7.0 mi NE 3.5 mph - N/A   Mostly Cloudy
9:55 AM 79.0 °F - 71.1 °F 77% 29.99 in 7.0 mi ENE 3.5 mph - N/A   Scattered Clouds
10:15 AM 80.8 °F 84.7 °F 71.6 °F 73% 30.00 in 10.0 mi Calm Calm - N/A   Scattered Clouds
10:35 AM 82.0 °F 86.5 °F 71.4 °F 70% 30.00 in 10.0 mi Calm Calm - N/A   Clear
10:55 AM 82.6 °F 87.3 °F 71.6 °F 69% 30.00 in 10.0 mi Calm Calm - N/A   Scattered Clouds
11:15 AM 82.4 °F 86.7 °F 71.1 °F 68% 30.01 in 10.0 mi Calm Calm - N/A   Mostly Cloudy
11:35 AM 84.9 °F 89.4 °F 70.2 °F 61% 30.01 in 10.0 mi Calm Calm - N/A   Mostly Cloudy
11:55 AM 85.1 °F 90.1 °F 70.9 °F 62% 30.01 in 10.0 mi Calm Calm - N/A   Mostly Cloudy
12:15 PM 85.5 °F 91.5 °F 72.0 °F 64% 30.01 in 10.0 mi Calm Calm - N/A   Overcast
12:35 PM 86.9 °F 92.5 °F 71.1 °F 59% 30.00 in 10.0 mi East 3.5 mph - N/A   Overcast
12:55 PM 88.3 °F 93.2 °F 69.8 °F 54% 30.00 in 10.0 mi NE 3.5 mph - N/A   Mostly Cloudy
1:15 PM 86.4 °F 90.4 °F 69.1 °F 56% 29.99 in 10.0 mi Calm Calm - N/A   Mostly Cloudy
1:35 PM 87.3 °F 92.0 °F 69.6 °F 56% 29.99 in 10.0 mi Calm Calm - N/A   Scattered Clouds
1:55 PM 87.8 °F 91.8 °F 68.7 °F 53% 29.97 in 10.0 mi North 3.5 mph - N/A   Mostly Cloudy
2:15 PM 87.6 °F 91.9 °F 69.3 °F 54% 29.96 in 10.0 mi East 3.5 mph - N/A   Mostly Cloudy
2:35 PM 86.7 °F 91.0 °F 69.3 °F 56% 29.96 in 10.0 mi Calm Calm - N/A   Scattered Clouds
2:55 PM 87.3 °F 92.0 °F 69.6 °F 56% 29.97 in 10.0 mi Calm Calm - N/A   Scattered Clouds
3:15 PM 88.3 °F 92.4 °F 68.7 °F 52% 29.96 in 10.0 mi SW 3.5 mph - N/A   Clear
3:35 PM 89.1 °F 93.3 °F 68.5 °F 51% 29.96 in 10.0 mi WSW 3.5 mph - N/A   Mostly Cloudy
3:55 PM 88.3 °F 92.8 °F 69.4 °F 53% 29.96 in 10.0 mi South 4.6 mph - N/A   Scattered Clouds
4:15 PM 88.2 °F 92.1 °F 68.7 °F 52% 29.97 in 10.0 mi SE 3.5 mph - N/A   Clear
4:55 PM 84.6 °F 90.0 °F 71.6 °F 65% 29.98 in 7.0 mi Calm Calm - 0.01 in Rain Light Rain
5:15 PM 81.5 °F 87.6 °F 74.7 °F 80% 29.98 in 7.0 mi WSW 3.5 mph - 0.01 in   Mostly Cloudy
5:35 PM 84.4 °F 90.6 °F 72.7 °F 68% 29.97 in 10.0 mi Calm Calm - 0.01 in   Scattered Clouds
5:55 PM 84.9 °F 91.8 °F 73.4 °F 68% 29.96 in 10.0 mi Calm Calm - 0.01 in   Clear
6:15 PM 84.2 °F 91.2 °F 73.8 °F 71% 29.96 in 10.0 mi Calm Calm - N/A   Clear
6:35 PM 84.4 °F 91.3 °F 73.6 °F 70% 29.97 in 10.0 mi South 3.5 mph - N/A   Clear
6:55 PM 84.0 °F 90.8 °F 73.8 °F 71% 29.96 in 10.0 mi South 3.5 mph - N/A   Clear
7:15 PM 83.3 °F 88.7 °F 72.3 °F 69% 29.97 in 10.0 mi Calm Calm - N/A   Clear
7:35 PM 82.0 °F 87.4 °F 72.9 °F 74% 29.97 in 10.0 mi Calm Calm - N/A   Clear
7:55 PM 80.8 °F 85.8 °F 73.6 °F 79% 29.97 in 10.0 mi Calm Calm - N/A   Clear
8:15 PM 79.7 °F - 77.2 °F 92% 29.97 in 10.0 mi South 3.5 mph - N/A   Clear
8:35 PM 79.5 °F - 75.7 °F 88% 29.98 in 10.0 mi Calm Calm - N/A   Clear
8:55 PM 79.3 °F - 71.4 °F 77% 29.98 in 10.0 mi Calm Calm - N/A   Clear
9:15 PM 78.6 °F - 72.3 °F 81% 30.00 in 10.0 mi Calm Calm - N/A   Clear
9:35 PM 77.0 °F - 74.7 °F 92% 30.02 in 10.0 mi Calm Calm - N/A   Clear
9:55 PM 77.4 °F - 74.3 °F 90% 30.02 in 10.0 mi Calm Calm - N/A   Clear
10:15 PM 77.2 °F - 73.6 °F 89% 30.03 in 10.0 mi Calm Calm - N/A   Clear
10:35 PM 77.2 °F - 74.3 °F 91% 30.03 in 10.0 mi Calm Calm - N/A   Clear
10:55 PM 77.0 °F - 74.8 °F 93% 30.03 in 10.0 mi Calm Calm - N/A   Clear
11:15 PM 77.5 °F - 74.7 °F 91% 30.03 in 10.0 mi Calm Calm - N/A   Clear
11:35 PM 77.0 °F - 74.8 °F 93% 30.02 in 10.0 mi South 3.5 mph - N/A   Clear
11:55 PM 76.5 °F - 75.2 °F 96% 30.03 in 7.0 mi Calm Calm - N/A   Clear